EW7146 Weather Reports


time (UTC)temp
F
wind
direction
speed
knots
gust
knots
rain 1hr
in
rain 24hr
in
rain mn
in
humidity
%
barometer
mb
20260505031532 69 209 0.0 2.6 0.00 0.00 0.00 39 1020.1
20260505031030 69 210 0.9 1.7 0.00 0.00 0.00 39 1019.9
20260505030803 69 231 0.9 1.7 0.00 0.00 0.00 40 1019.9
20260505030029 69 220 0.0 1.7 0.00 0.00 0.00 38 1019.8
20260505025529 70 252 0.9 1.7 0.00 0.00 0.00 39 1019.8
20260505025030 70 219 0.0 0.9 0.00 0.00 0.00 37 1019.6
20260505024528 70 219 0.0 0.9 0.00 0.00 0.00 37 1019.8
20260505024259 71 223 0.9 1.7 0.00 0.00 0.00 37 1019.6
20260505023529 71 223 0.0 1.7 0.00 0.00 0.00 37 1019.6
20260505023306 71 234 0.0 1.7 0.00 0.00 0.00 37 1019.5
20260505022529 72 243 0.9 1.7 0.00 0.00 0.00 37 1019.6
20260505022030 73 255 0.9 1.7 0.00 0.00 0.00 36 1019.5
20260505021529 74 258 0.0 1.7 0.00 0.00 0.00 34 1019.4
20260505021028 74 255 0.9 1.7 0.00 0.00 0.00 34 1019.4
20260505020528 76 278 0.0 0.9 0.00 0.00 0.00 33 1019.4
20260505020516 77 261 0.0 0.9 0.00 0.00 0.00 31 1019.5
20260505015529 78 295 0.0 0.0 0.00 0.00 0.00 29 1019.4
20260505015029 79 295 0.0 3.5 0.00 0.00 0.00 27 1019.3
20260505014531 80 295 0.0 3.5 0.00 0.00 0.00 26 1019.3
20260505014030 81 258 0.0 6.1 0.00 0.00 0.00 25 1019.2
20260505013532 81 309 1.7 6.1 0.00 0.00 0.00 23 1019.3
20260505013028 81 289 1.7 4.3 0.00 0.00 0.00 23 1019.3
20260505012527 81 281 0.0 3.5 0.00 0.00 0.00 24 1019.3
20260505012027 81 293 1.7 5.2 0.00 0.00 0.00 23 1019.3
20260505012010 82 274 1.7 6.1 0.00 0.00 0.00 22 1019.4
20260505011028 82 243 2.6 6.1 0.00 0.00 0.00 22 1019.4
20260505010801 83 321 4.3 6.1 0.00 0.00 0.00 21 1019.4
20260505010029 83 285 0.9 5.2 0.00 0.00 0.00 23 1019.5
20260505005529 83 276 1.7 4.3 0.00 0.00 0.00 23 1019.4
20260505005030 83 268 0.9 4.3 0.00 0.00 0.00 22 1019.5
20260505004526 82 254 0.9 5.2 0.00 0.00 0.00 23 1019.5
20260505004041 82 285 1.7 6.1 0.00 0.00 0.00 23 1019.4
20260505003531 82 265 1.7 6.1 0.00 0.00 0.00 23 1019.5
20260505003025 82 310 0.9 3.5 0.00 0.00 0.00 22 1019.4
20260505002528 82 264 0.9 3.5 0.00 0.00 0.00 23 1019.5
20260505002026 83 265 0.9 6.1 0.00 0.00 0.00 23 1019.6
20260505001528 83 262 1.7 6.1 0.00 0.00 0.00 23 1019.5
20260505001026 83 262 1.7 6.1 0.00 0.00 0.00 23 1019.4
20260505000527 84 290 1.7 6.1 0.00 0.00 0.00 22 1019.5
20260505000028 84 49 2.6 6.1 0.00 0.00 0.00 22 1019.5
20260504235755 84 259 3.5 6.1 0.00 0.00 0.00 22 1019.5
20260504235031 86 296 1.7 4.3 0.00 0.00 0.00 21 1019.5
20260504234526 85 268 0.9 4.3 0.00 0.00 0.00 22 1019.5
20260504234030 84 276 0.9 5.2 0.00 0.00 0.00 24 1019.5
20260504233525 84 306 1.7 9.6 0.00 0.00 0.00 22 1019.6
20260504233026 84 292 2.6 9.6 0.00 0.00 0.00 21 1019.5
20260504232530 85 283 1.7 6.1 0.00 0.00 0.00 21 1019.6
20260504232258 85 333 2.6 6.1 0.00 0.00 0.00 21 1019.5
20260504231525 84 306 3.5 6.1 0.00 0.00 0.00 22 1019.5
20260504231025 84 329 0.0 5.2 0.00 0.00 0.00 22 1019.6
20260504230536 83 302 1.7 5.2 0.00 0.00 0.00 23 1019.8
20260504230025 83 285 0.0 7.8 0.00 0.00 0.00 22 1019.8
20260504225528 84 282 0.0 7.8 0.00 0.00 0.00 23 1019.8
20260504225255 85 278 1.7 6.1 0.00 0.00 0.00 21 1019.9
20260504224748 85 0 1.7 6.1 0.00 0.00 0.00 21 1019.9
20260504224023 85 264 1.7 8.7 0.00 0.00 0.00 21 1019.9
20260504223524 85 257 1.7 8.7 0.00 0.00 0.00 20 1019.9
20260504223024 85 4 1.7 9.6 0.00 0.00 0.00 21 1019.9
20260504222523 85 281 5.2 9.6 0.00 0.00 0.00 19 1020.0
20260504222024 86 320 1.7 10.4 0.00 0.00 0.00 23 1020.0
20260504221523 85 300 0.0 10.4 0.00 0.00 0.00 22 1019.9
20260504221024 86 266 1.7 6.1 0.00 0.00 0.00 20 1020.0
20260504220523 85 281 0.9 6.1 0.00 0.00 0.00 22 1020.0
20260504220024 84 279 3.5 6.1 0.00 0.00 0.00 20 1020.1
20260504215751 84 307 1.7 6.1 0.00 0.00 0.00 21 1020.2
20260504215022 84 285 2.6 10.4 0.00 0.00 0.00 21 1020.3
20260504214523 84 279 2.6 10.4 0.00 0.00 0.00 22 1020.3
20260504214021 84 54 2.6 7.8 0.00 0.00 0.00 20 1020.4
20260504213523 84 52 0.9 8.7 0.00 0.00 0.00 23 1020.4
20260504213024 84 275 4.3 8.7 0.00 0.00 0.00 20 1020.4
20260504212523 83 268 2.6 9.6 0.00 0.00 0.00 21 1020.4
20260504212021 83 269 4.3 9.6 0.00 0.00 0.00 21 1020.5
20260504211523 83 262 5.2 11.3 0.00 0.00 0.00 20 1020.5
20260504211021 83 258 2.6 11.3 0.00 0.00 0.00 20 1020.4
20260504210521 84 255 2.6 5.2 0.00 0.00 0.00 22 1020.5
20260504210245 83 348 0.9 11.3 0.00 0.00 0.00 22 1020.5
20260504205752 83 319 1.7 11.3 0.00 0.00 0.00 21 1020.6
20260504205023 83 317 6.1 10.4 0.00 0.00 0.00 21 1020.5
20260504204750 83 317 3.5 9.6 0.00 0.00 0.00 21 1020.6
20260504204022 83 286 2.6 9.6 0.00 0.00 0.00 22 1020.7
20260504203522 82 336 5.2 9.6 0.00 0.00 0.00 21 1020.7
20260504203020 82 303 3.5 9.6 0.00 0.00 0.00 22 1020.7
20260504202521 82 282 4.3 9.6 0.00 0.00 0.00 21 1020.7
20260504202021 82 295 4.3 9.6 0.00 0.00 0.00 21 1020.8
20260504201521 82 276 5.2 11.3 0.00 0.00 0.00 21 1020.9
20260504201019 81 320 3.5 11.3 0.00 0.00 0.00 23 1020.9
20260504200521 81 300 5.2 9.6 0.00 0.00 0.00 21 1020.9
20260504200020 81 155 4.3 11.3 0.00 0.00 0.00 22 1021.0
20260504195522 81 262 5.2 11.3 0.00 0.00 0.00 22 1021.0
20260504195020 81 269 3.5 11.3 0.00 0.00 0.00 22 1021.0
20260504194519 82 265 6.1 11.3 0.00 0.00 0.00 20 1021.0
20260504194020 81 300 1.7 11.3 0.00 0.00 0.00 22 1021.0
20260504193746 81 240 7.0 11.3 0.00 0.00 0.00 22 1021.1
20260504193243 81 285 5.2 11.3 0.00 0.00 0.00 23 1021.0
20260504192520 81 269 3.5 8.7 0.00 0.00 0.00 24 1021.1
20260504192020 80 307 2.6 9.6 0.00 0.00 0.00 25 1021.4
20260504191520 80 288 5.2 9.6 0.00 0.00 0.00 23 1021.4
20260504191021 80 314 2.6 9.6 0.00 0.00 0.00 24 1021.5
20260504190518 80 264 4.3 8.7 0.00 0.00 0.00 24 1021.5
20260504190019 79 283 5.2 10.4 0.00 0.00 0.00 23 1021.7
20260504185519 79 303 7.0 10.4 0.00 0.00 0.00 23 1021.8
20260504185019 79 264 3.5 8.7 0.00 0.00 0.00 23 1021.7
20260504184737 79 269 5.2 9.6 0.00 0.00 0.00 23 1021.8
20260504184018 79 281 2.6 16.5 0.00 0.00 0.00 23 1021.9
20260504184008 78 258 7.8 16.5 0.00 0.00 0.00 23 1021.8
20260504183254 79 265 6.1 11.3 0.00 0.00 0.00 23 1021.9
20260504182520 79 295 3.5 11.3 0.00 0.00 0.00 25 1021.9
20260504182018 78 266 1.7 9.6 0.00 0.00 0.00 26 1022.0
20260504181519 78 289 5.2 9.6 0.00 0.00 0.00 24 1022.0
20260504181239 79 290 4.3 8.7 0.00 0.00 0.00 24 1022.0
20260504180514 79 290 1.7 7.8 0.00 0.00 0.00 24 1022.0
20260504180018 79 226 1.7 9.6 0.00 0.00 0.00 24 1022.0
20260504175518 78 271 3.5 9.6 0.00 0.00 0.00 25 1022.0
20260504175019 78 276 3.5 10.4 0.00 0.00 0.00 25 1022.0
20260504174518 78 275 4.3 10.4 0.00 0.00 0.00 25 1022.1
20260504174459 78 290 5.2 10.4 0.00 0.00 0.00 25 1022.1
20260504173517 77 279 2.6 10.4 0.00 0.00 0.00 26 1022.1
20260504173017 77 324 4.3 10.4 0.00 0.00 0.00 26 1022.1
20260504172518 77 265 5.2 9.6 0.00 0.00 0.00 25 1022.3
20260504172016 77 271 0.9 8.7 0.00 0.00 0.00 27 1022.3
20260504171518 76 275 0.0 6.1 0.00 0.00 0.00 30 1022.3
20260504171016 75 243 0.9 4.3 0.00 0.00 0.00 34 1022.5
20260504170745 74 309 0.9 3.5 0.00 0.00 0.00 32 1022.4
20260504151011 59 56 0.0 1.7 0.00 0.00 0.00 52 1023.9
20260504150513 59 76 0.9 1.7 0.00 0.00 0.00 54 1024.0
20260504141012 47 66 0.0 0.0 0.00 0.00 0.00 74 1023.9
20260504140512 47 66 0.0 0.0 0.00 0.00 0.00 75 1024.0
20260504130511 42 155 0.0 0.9 0.00 0.00 0.00 78 1023.8
20260504120237 44 128 0.0 0.9 0.00 0.00 0.00 73 1023.6
20260504110509 47 154 0.0 0.0 0.00 0.00 0.00 70 1023.5
20260504100508 48 142 0.0 0.0 0.00 0.00 0.00 66 1023.6
20260504082004 53 200 1.7 1.7 0.00 0.00 0.00 56 1023.3
20260504081505 53 200 0.0 2.6 0.00 0.00 0.00 55 1023.2
20260504081004 54 216 0.9 2.6 0.00 0.00 0.00 55 1023.2
20260504080948 54 213 1.7 2.6 0.00 0.00 0.00 55 1023.2
20260504050500 62 209 0.9 3.5 0.00 0.00 0.00 42 1022.6
20260504050001 62 137 1.7 3.5 0.00 0.00 0.00 42 1022.5
20260504045459 62 157 0.0 4.3 0.00 0.00 0.00 42 1022.4
20260504045001 62 289 2.6 4.3 0.00 0.00 0.00 43 1022.4
20260504044500 62 104 0.0 1.7 0.00 0.00 0.00 39 1022.3
20260504044000 63 244 0.0 1.7 0.00 0.00 0.00 39 1022.2
20260504043500 63 248 0.9 1.7 0.00 0.00 0.00 38 1022.2
20260504043000 63 234 0.9 2.6 0.00 0.00 0.00 39 1022.2
20260504042943 62 285 1.7 2.6 0.00 0.00 0.00 40 1022.1
20260504041959 62 221 0.9 1.7 0.00 0.00 0.00 41 1022.1
20260504041501 63 241 0.0 1.7 0.00 0.00 0.00 39 1022.1
20260504041000 62 238 0.9 1.7 0.00 0.00 0.00 40 1021.9
20260504040500 62 233 0.0 0.9 0.00 0.00 0.00 40 1022.0
20260504040224 63 231 0.0 1.7 0.00 0.00 0.00 40 1022.0
20260504035726 63 231 0.0 1.7 0.00 0.00 0.00 41 1021.9
20260504034958 63 234 0.0 0.9 0.00 0.00 0.00 41 1021.9
20260504034459 63 234 0.0 0.9 0.00 0.00 0.00 41 1021.8
20260504033959 64 4 0.0 1.7 0.00 0.00 0.00 40 1021.7
20260504033458 65 4 0.0 1.7 0.00 0.00 0.00 38 1021.6
20260504033002 65 223 0.0 0.9 0.00 0.00 0.00 37 1021.6
20260504032724 65 226 0.0 0.9 0.00 0.00 0.00 37 1021.6
20260504032000 65 238 0.0 0.9 0.00 0.00 0.00 39 1021.5